This demonstration page uses our WeatherBlox Daily Observations layout. Learn more.

Left ArrowRight Arrow

41.55636, -103.73856

Hourly Observations for December 7, 2017

Temp ( °F °C ) Dew Point ( °F °C ) Humidity (%) Winds ( mph kmh ) Pressure ( in mb ) Visibility ( mi km ) Precip ( " mm )
12:45 am 00:45 Cloudy 23 -5 13 -10.6 65 65 W 7 11 30.59 1036 10 16 N/A
12:53 am 00:53 Cloudy 23 -5 13 -10.6 65 65 W 6 9 30.51 1033 10 16 N/A
1:03 am 01:03 Cloudy 23 -5 13 -10.6 65 65 W 7 11 30.59 1036 10 16 N/A
1:13 am 01:13 Cloudy 23 -5 13 -10.6 65 65 WNW 6 9 30.59 1036 10 16 N/A
1:40 am 01:40 Cloudy 23 -5 14 -10 68 68 WNW 7 11 30.59 1036 10 16 N/A
1:53 am 01:53 Cloudy 23 -5 14 -10 68 68 WNW 6 9 30.51 1033 10 16 N/A
2:53 am 02:53 Cloudy 23 -5 15 -9.4 72 72 WNW 5 7 30.50 1033 10 16 N/A
3:53 am 03:53 Cloudy 25 -3.9 15 -9.4 66 66 NW 13 20 30.48 1032 10 16 N/A
4:53 am 04:53 Mostly Cloudy 22 -5.6 14 -10 71 71 WNW 9 15 30.49 1032 10 16 N/A
5:53 am 05:53 Clear 15 -9.4 9 -12.8 77 77 NW 6 9 30.52 1034 10 16 N/A
6:53 am 06:53 Clear 13 -10.6 7 -13.9 77 77 NW 8 13 30.54 1034 10 16 N/A
7:53 am 07:53 Sunny 15 -9.4 8 -13.3 74 74 WNW 6 9 30.54 1034 10 16 N/A
8:53 am 08:53 Sunny 22 -5.6 11 -11.7 63 63 WNW 12 19 30.50 1033 10 16 N/A
9:53 am 09:53 Partly Cloudy 29 -1.7 10 -12.2 45 45 WNW 15 24 30.47 1032 10 16 N/A
10:53 am 10:53 Cloudy 34 1.1 11 -11.7 38 38 WNW 18 30 30.41 1030 10 16 N/A
11:53 am 11:53 Cloudy 36 2.2 12 -11.1 37 37 WNW 18 30 30.36 1028 10 16 N/A
12:53 pm 12:53 Cloudy 39 3.9 13 -10.6 34 34 WNW 21 33 30.33 1027 10 16 N/A
1:53 pm 13:53 Mostly Cloudy 41 5 15 -9.4 35 35 WNW 24 39 30.29 1026 10 16 N/A
2:53 pm 14:53 Sunny 41 5 17 -8.3 38 38 NW 24 39 30.28 1025 10 16 N/A
3:53 pm 15:53 Partly Cloudy 39 3.9 17 -8.3 41 41 WNW 17 28 30.27 1025 10 16 N/A
4:53 pm 16:53 Mostly Cloudy 39 3.9 18 -7.8 43 43 WNW 18 30 30.27 1025 10 16 N/A
5:53 pm 17:53 Cloudy 39 3.9 20 -6.7 46 46 WNW 13 20 30.29 1026 10 16 N/A
6:53 pm 18:53 Cloudy 39 3.9 19 -7.2 45 45 WNW 17 28 30.29 1026 10 16 N/A
7:53 pm 19:53 Cloudy 38 3.3 19 -7.2 46 46 W 12 19 30.29 1026 10 16 N/A
8:53 pm 20:53 Cloudy 39 3.9 19 -7.2 45 45 W 16 26 30.26 1025 10 16 N/A
9:53 pm 21:53 Cloudy 39 3.9 18 -7.8 43 43 W 16 26 30.23 1024 10 16 N/A
10:53 pm 22:53 Cloudy 40 4.4 18 -7.8 41 41 WNW 16 26 30.20 1023 10 16 N/A
11:53 pm 23:53 Mostly Cloudy 42 5.6 17 -8.3 36 36 WNW 22 35 30.15 1021 10 16 N/A

Powered by AerisWeather